Location: Enborne
(51.3833°N, 1.3667°W)
Time: 00:12:30
(UTC+00:00)

NOSS 2-2 (C) - Pass Details

Date: 21 January 2021
Orbit: 463 x 1745 km, 63.3° (Epoch: 03 March)

Event Time Altitude Azimuth Distance (km) Brightness Sun altitude
Rises 17:05:41 0° 290° (WNW) 2,604 7.5 -4.8°
Reaches altitude 10° 17:08:13 10° 311° (NW) 1,823 6.3 -5.2°
Maximum altitude 17:11:06 19° 357° (N) 1,497 5.3 -5.6°
Drops below altitude 10° 17:14:29 10° 42° (NE) 2,191 5.8 -6.1°
Enters shadow 17:15:41 - 50° (NE) 2,576 6.1 -6.2°
